Back to catalog

DELTA 1 DEB

AlivePO
NORAD 21515·DEBRIS·🇺🇸 United States

Launched Jun 12, 1975 from Vandenberg Space Force Base

Loading…

Next Passes (next 24 hours)

TLE

FreshSource: Space-Track

Epoch: Sep 14, 2026, 09:21 UTC

1 21515U 75052GL  26257.38969218 -.00000448  00000-0 -11680-2 0  9997
2 21515  99.6956 297.2863 0273556  30.9706  86.1065 12.98811167674265

Track DELTA 1 DEB in real time with AllMySat

Download on the App Store